Weather History for Ahmedabad, India

Change the Weather History Date:

Monday, August 12, 2013

  Actual Average Record
Temperature  
Mean Temperature 84 °F -  
Max Temperature 91 °F 87 °F 91 °F (1997)
Min Temperature 77 °F 76 °F 74 °F (2012)
Cooling Degree Days 19    
Growing Degree Days 34 (Base 50)    
Moisture  
Dew Point 79 °F    
Average Humidity 88    
Maximum Humidity 100    
Minimum Humidity 63    
Precipitation  
Precipitation 0.12 in 0.27 in - ()
Sea Level Pressure  
Sea Level Pressure 29.64 in    
Wind  
Wind Speed 5 mph ()    
Max Wind Speed 12 mph    
Max Gust Speed -    
Visibility 2.3 miles    
Events Rain    
Averages and records for this station are not official NWS values.
T = Trace of Precipitation, MM = Missing Value Source: Averaged Metar Reports

Daily Weather History Graph

Daily Weather History Graph

Search for Another Location

Airport:

Trip Planner

Search our weather history database for the weather conditions in past years. The results will help you decide how hot, cold, wet, or windy it might be!

Date:

Astronomy

Aug. 12, 2013 Rise Set
Actual Time 6:14 AM IST 7:14 PM IST
Civil Twilight 5:50 AM IST 7:37 PM IST
Nautical Twilight 5:23 AM IST 8:05 PM IST
Astronomical Twilight 4:54 AM IST 8:33 PM IST
Moon 10:52 AM IST (8/12) 10:36 PM IST (8/12)
Length of Visible Light 13h 46m
Length of Day
12h 59m
Waxing Crescent, 27% of the Moon is Illuminated
Aug 12
Waxing Crescent
Aug 14
First Quarter
Aug 21
Full
Aug 28
Last Quarter
Sep 5
New

Hourly Weather History & Observations

Time (IST) Temp. Heat Index Dew Point Humidity Pressure Visibility Wind Dir Wind Speed Gust Speed Precip Events Conditions
12:10 AM 80.6 °F 88.1 °F 78.8 °F 94% 29.68 in 2.5 mi SSW 5.8 mph - N/A Rain Light Rain
12:40 AM 80.6 °F 88.1 °F 78.8 °F 94% 29.68 in 2.5 mi SSW 5.8 mph - N/A   Haze
1:10 AM 80.6 °F 88.1 °F 78.8 °F 94% 29.68 in 2.5 mi SSW 5.8 mph - N/A   Haze
1:40 AM 80.6 °F 88.1 °F 78.8 °F 94% 29.68 in 2.5 mi SSW 5.8 mph - N/A   Haze
2:10 AM 80.6 °F 88.1 °F 78.8 °F 94% 29.65 in 2.5 mi SSW 6.9 mph - N/A   Haze
2:30 AM 79 °F - 78 °F 94% 29.67 in 2 mi SW 3.5 mph - -   Mist
2:40 AM 80.6 °F 88.1 °F 78.8 °F 94% 29.65 in 2.5 mi SSW 6.9 mph - N/A   Haze
3:10 AM 78.8 °F - 77.0 °F 94% 29.65 in 2.5 mi SSW 6.9 mph - N/A   Haze
3:40 AM 78.8 °F - 78.8 °F 100% 29.65 in 2.5 mi SSW 5.8 mph - N/A   Haze
4:10 AM 78.8 °F - 77.0 °F 94% 29.65 in 2.5 mi SW 8.1 mph - N/A   Haze
4:40 AM 78.8 °F - 77.0 °F 94% 29.65 in 2.5 mi SW 5.8 mph - N/A   Haze
5:10 AM 77.0 °F - 77.0 °F 100% 29.65 in 2.5 mi SW 4.6 mph - N/A   Haze
5:30 AM 77 °F - 77 °F 98% 29.66 in 2 mi SW 3.5 mph - -   Mist
5:40 AM 77.0 °F - 77.0 °F 100% 29.65 in 2.5 mi SW 4.6 mph - N/A   Haze
6:40 AM 78.8 °F - 77.0 °F 94% 29.68 in 2.5 mi SW 4.6 mph - N/A   Haze
7:10 AM 78.8 °F - 77.0 °F 94% 29.68 in 2.5 mi SW 4.6 mph - N/A   Haze
7:40 AM 78.8 °F - 78.8 °F 100% 29.68 in 2.2 mi SSW 4.6 mph - N/A   Haze
8:10 AM 78.8 °F - 78.8 °F 100% 29.68 in 1.9 mi SW 5.8 mph - N/A   Haze
8:30 AM 81 °F - 77 °F 84% 29.69 in 1 mi SW 4.6 mph - -   Mist
8:40 AM 80.6 °F 87.1 °F 77.0 °F 89% 29.71 in 1.6 mi WSW 6.9 mph - N/A   Haze
9:10 AM 80.6 °F 88.1 °F 78.8 °F 94% 29.71 in 1.6 mi WSW 8.1 mph - N/A   Haze
9:40 AM 80.6 °F 88.1 °F 78.8 °F 94% 29.71 in 1.6 mi SW 8.1 mph - N/A   Light Drizzle
10:10 AM 82.4 °F 92.4 °F 78.8 °F 89% 29.71 in 1.6 mi SSW 6.9 mph - N/A   Light Drizzle
10:40 AM 82.4 °F 92.4 °F 78.8 °F 89% 29.71 in 1.6 mi SW 8.1 mph - N/A   Light Drizzle
11:30 AM 85 °F - 77 °F 72% 29.70 in 1 mi SW 4.6 mph - -   Haze
12:10 PM 86.0 °F 101.9 °F 80.6 °F 84% 29.68 in 2.5 mi West 5.8 mph - N/A   Haze
12:40 PM 86.0 °F 99.3 °F 78.8 °F 79% 29.65 in 2.5 mi West 3.5 mph - N/A   Haze
1:10 PM 87.8 °F 104.9 °F 80.6 °F 79% 29.65 in 2.5 mi West 3.5 mph - N/A   Haze
2:10 PM 89.6 °F 108.2 °F 80.6 °F 75% 29.62 in 3.1 mi WSW 5.8 mph - N/A   Haze
2:30 PM 89 °F - 78 °F 63% 29.63 in 1 mi West 3.5 mph - -   Haze
2:40 PM 89.6 °F 108.2 °F 80.6 °F 75% 29.62 in 3.1 mi WNW 3.5 mph - N/A   Haze
3:10 PM 89.6 °F 104.7 °F 78.8 °F 70% 29.59 in 3.1 mi WSW 5.8 mph - N/A   Haze
3:40 PM 89.6 °F 104.7 °F 78.8 °F 70% 29.59 in 3.1 mi WSW 4.6 mph - N/A   Haze
4:10 PM 89.6 °F 104.7 °F 78.8 °F 70% 29.56 in 3.1 mi WSW 4.6 mph - N/A   Haze
4:40 PM 89.6 °F 104.7 °F 78.8 °F 70% 29.56 in 3.1 mi West 4.6 mph - N/A   Haze
5:10 PM 91.4 °F 107.2 °F 78.8 °F 66% 29.56 in 3.1 mi WNW 3.5 mph - N/A   Haze
5:40 PM 89.6 °F 108.2 °F 80.6 °F 75% 29.56 in 3.1 mi SW 5.8 mph - N/A   Haze
6:10 PM 89.6 °F 108.2 °F 80.6 °F 75% 29.56 in 3.1 mi Calm Calm - N/A   Haze
6:40 PM 87.8 °F 102.5 °F 78.8 °F 75% 29.56 in 2.5 mi South 4.6 mph - N/A   Haze
7:40 PM 84.2 °F 98.3 °F 80.6 °F 89% 29.59 in 1.9 mi Calm Calm - N/A   Light Drizzle
8:10 PM 84.2 °F 98.3 °F 80.6 °F 89% 29.59 in 1.9 mi Calm Calm - N/A   Haze
8:30 PM 83 °F - 80 °F 86% 29.60 in 2 mi Calm Calm - -   Haze
8:40 PM 84.2 °F 98.3 °F 80.6 °F 89% 29.62 in 1.9 mi South 3.5 mph - N/A   Haze
9:10 PM 82.4 °F 94.0 °F 80.6 °F 94% 29.62 in 1.9 mi South 5.8 mph - N/A   Haze
10:10 PM 78.8 °F - 78.8 °F 100% 29.62 in 1.9 mi SSW 11.5 mph - N/A   Light Drizzle
10:40 PM 78.8 °F - 78.8 °F 100% 29.62 in 1.9 mi WSW 4.6 mph - N/A   Light Drizzle
11:10 PM 78.8 °F - 78.8 °F 100% 29.65 in 1.9 mi SSW 3.5 mph - N/A   Light Drizzle
11:30 PM 80 °F - 78 °F 91% 29.64 in 2 mi Calm Calm - - Rain Light Rain
11:40 PM 78.8 °F - 78.8 °F 100% 29.65 in 1.9 mi SW 3.5 mph - N/A Rain Light Rain